Location: Unspecified
(52.4292°N, 19.3359°E)
Time: 00:55:36
(UTC+02:00)

A-11 Canister half - Pass Details

Date: 23 May 2024
Orbit: 1514 x 1685 km, 47.2° (Epoch: 20 June)

Event Time Altitude Azimuth Distance (km) Brightness Sun altitude
Rises 04:48:38 0° 253° (WSW) 4,739 10.9 0.8°
Reaches altitude 10° 04:51:46 10° 250° (WSW) 3,736 10.4 1.2°
Maximum altitude 05:00:58 63° 173° (S) 1,672 9.2 2.4°
Drops below altitude 10° 05:10:02 10° 95° (E) 3,676 12.1 3.6°
Sets 05:13:05 0° 92° (E) 4,659 12.7 4.0°
